Regional Weather Roundup
Issued by NWS

Home | Current Version | Previous Version | Graphics & Text | Print | Product List | Glossary On
Versions: 1 2 3 4 5 6 7 8 9 10 11 12 13 14 15 16 17 18 19 20 21 22 23 24 25 26 27
000
ASUS45 KSLC 302210
RWRUT

UTAH REGIONAL WEATHER ROUNDUP
NATIONAL WEATHER SERVICE SALT LAKE CITY UT
400 PM MDT SUN APR 30 2017

UTZ001>011-023>025-302300-

NORTHERN UTAH

CITY           SKY/WX    TMP DP  RH WIND       PRES   REMARKS
BRIGHAM CITY   CLOUDY    58  28  32 S9        30.10F
HILL AFB       CLOUDY    55  28  34 SW6       30.11F
LOGAN          CLOUDY    58  30  34 VRB3      30.08F
OGDEN          CLOUDY    56  28  34 VRB3      30.10F
SALT LAKE CITY CLOUDY    61  26  26 NW5       30.10F
TOOELE VALLEY  CLOUDY    63  32  31 N8        30.10F
WENDOVER       PTSUNNY   66  26  22 E8        30.06F
HEBER CITY     CLOUDY    57  25  28 NW10      30.09S
WEST JORDAN    CLOUDY    61  37  41 NW3       30.11F

$$

UTZ011>015-024>027-302300-

CENTRAL/NORTHEAST UTAH

CITY           SKY/WX    TMP DP  RH WIND       PRES   REMARKS
PROVO AIRPORT  PTSUNNY   58  26  29 NW6       30.11F
MOAB/CANYONLAN SUNNY     63  11  13 SW7       30.00F
DELTA          SUNNY     61  23  23 SW3       30.12F
PRICE          PTSUNNY   61  22  22 NW22G31   30.05F
RICHFIELD      SUNNY     63  25  23 NW9G16      N/A
ROOSEVELT      CLOUDY    63  21  20 E7        30.04S
VERNAL         CLOUDY    58  16  19 SE8       30.04F

$$

UTZ013>016-019>022-027-302300-

SOUTHERN UTAH

CITY           SKY/WX    TMP DP  RH WIND       PRES   REMARKS
BRYCE CANYON   SUNNY     58  18  21 NW20G28   30.15F
CEDAR CITY     SUNNY     62  18  18 VRB5      30.11F
MILFORD        MOSUNNY   64  22  20 SE6       30.10F
ST GEORGE      MOCLDY    75  19  12 SW13G18   30.01F
HANKSVILLE     MOSUNNY   68  18  14 CALM      30.04F
KANAB          SUNNY     72  18  13 W12G18    30.09F
BLANDING       MOSUNNY   61  11  14 NW14G23   30.12F

$$

REGIONAL REPORTS     COLORADO/ARIZONA

CITY           SKY/WX    TMP DP  RH WIND       PRES   REMARKS
CRAIG, CO      CLOUDY    53  22  29 SW13G21   30.03F
GRAND JUNCTION MOSUNNY   61  17  18 W9        30.02F
RIFLE, CO      PTSUNNY   60  14  16 VRB6G23   30.02F
MONTROSE, CO   SUNNY     54  17  23 S5        30.07F
CORTEZ, CO     SUNNY     59  16  18 NW8G18    30.03F
COLORADO CITY    N/A     72  21  15 W15       30.11F
PAGE, AZ       MOSUNNY   69  13  11 MISG      30.03F
GRAND CANYON   SUNNY     60  11  14 W5G22     30.16F
KINGMAN, AZ    SUNNY     77  19  11 CALM      30.06F
FLAGSTAFF, AZ  SUNNY     63   5  10 W15G21    30.14F

$$

REGIONAL REPORTS    NEVADA/IDAHO/WYOMING

CITY           SKY/WX    TMP DP  RH WIND       PRES   REMARKS
LAS VEGAS, NV  MOSUNNY   82  10   6 N3        29.98F
ELY, NY        MOSUNNY   64  21  19 W16G23    30.13F
ELKO, NV       CLOUDY    63  27  25 W16G23    30.12F
POCATELLO, ID  PTSUNNY   59  34  39 SW22      30.06F
BURLEY, ID     MOSUNNY   61  36  39 W18G28    30.06F
FORT BRIDGER,    N/A     50  27  41 W22G29    30.12F
EVANSTON, WY   CLOUDY    46  26  45 W20       30.12F
ROCK SPRINGS,  CLOUDY    55  23  28 W20G29    30.02F
KEMMERER, WY     N/A     45  28  53 W24G35    30.09F

$$




USA.gov is the U.S. government's official web portal to all federal, state and local government web resources and services.